Regional Weather Roundup
Issued by NWS

Home | Current Version | Previous Version | Graphics & Text | Print | Product List | Glossary On
Versions: 1 2 3 4 5 6 7 8 9 10 11 12 13 14 15 16 17 18 19 20 21 22 23 24 25 26 27 28 29 30 31 32 33 34 35 36 37 38 39 40 41 42 43 44 45 46 47 48 49 50
000
ASUS43 KFSD 170510
RWRSD

WEATHER ROUNDUP FOR SOUTH DAKOTA
NATIONAL WEATHER SERVICE SIOUX FALLS SD
1200 AM CDT WED SEP 17 2014

NOTE: "FAIR" INDICATES FEW OR NO CLOUDS BELOW 12,000 FEET WITH NO
SIGNIFICANT WEATHER AND/OR OBSTRUCTIONS TO VISIBILITY.


SDZ001>005-009-010-012>017-170600-
NORTHWEST AND NORTH CENTRAL SOUTH DAKOTA

CITY           SKY/WX    TMP DP  RH WIND       PRES   REMARKS
BUFFALO          N/A     58  45  62 NE10      29.88F
FAITH            N/A     60  50  69 SE12      29.92S
MOBRIDGE       MOCLDY    54  51  90 E7        29.88S
$$

SDZ012>016-024>037-041>051-057-063-072>074-170600-
SOUTHWEST AND SOUTH CENTRAL SOUTH DAKOTA

CITY           SKY/WX    TMP DP  RH WIND       PRES   REMARKS
RAPID CTY ARPT CLEAR     55  46  71 NW3       29.96S
PIERRE         CLEAR     53  49  86 CALM      29.89R
CUSTER         CLEAR     52  40  63 NW3       30.11S
ELLSWORTH AFB  CLEAR     57  48  71 NW5       29.96S
PHILIP         CLEAR     52  49  89 NW5       29.92R
PINE RIDGE     CLEAR     52  48  86 E5        29.99R
WINNER         FAIR      62  56  80 S6        29.91F
$$

SDZ004>011-016>023-039-040-170600-
NORTHEAST SOUTH DAKOTA

CITY           SKY/WX    TMP DP  RH WIND       PRES   REMARKS
ABERDEEN       CLEAR     50  49  96 E5        29.91S
WATERTOWN      MOCLDY    57  50  77 SE7       29.94S
SISSETON         N/A     55  53  93 S3        29.91F
$$

SDZ017-020-022-023-036>040-048>070-170600-
SOUTHEAST SOUTH DAKOTA

CITY           SKY/WX    TMP DP  RH WIND       PRES   REMARKS
SIOUX FALLS    CLOUDY    61  49  64 S7        29.96F
HURON          PTCLDY    58  52  80 S10       29.91S
CHAMBERLAIN    CLEAR     55  54  94 CALM      29.90S
MITCHELL       MOCLDY    57  52  83 SE10      29.92S
YANKTON        PTCLDY    55  48  76 SE6       29.96S
$$

ABBREVIATIONS USED IN REMARKS
   TC - TEMPERATURE IN CELSIUS
  WCI - WIND CHILL INDEX
   HX - HEAT INDEX
  VSB - VISIBILITY



USA.gov is the U.S. government's official web portal to all federal, state and local government web resources and services.